OPS 4682 DEB, 38422

Orbit data source: Space-Track

OPS 4682 DEB, 38422 is space debris in LEO originally from a launch on Sat, 03 Apr 1965 UTC launched from the Air Force Western Test Range (AFWTR). Debris objects in space refer to the collection of defunct objects orbiting the Earth. Examples of debris include non-operational satellites, rocket bodies, and fragments generated from explosions, collisions, or faulty payload assembly.

Loading next visibility...
Identifier
38422, 1965-027EB
Orbit
LEO
Country
Flag of USUS
Related business
Manufacturer
Unknown
Mission
Spacecraft
Bus & Motor
Unknown
Mass
Unknown
Launch date (UTC)
1965-04-03 (61 years ago)
Launch vehicle
Unknown
Launch site
Air Force Western Test Range (AFWTR)
Object type
Payload
Rocket body
Debris
Shape & HBR
Unknown shape, 0.1 m
Radar Cross Section
Small (<0.1 m²)

Expand to show TLE details & history
Last TLE update: 2 hours ago

TLE from 2 hours ago
0 OPS 4682 DEB
1 38422U 65027EB  25295.21411463  .00000649  00000-0  22064-2 0  9999
2 38422  90.2638  18.5987 0032039 329.9083  30.0197 12.97521261632263
Epoch: 2025-10-22T05:08Z
TLE epoch observation values (Epoch: 2025-10-22T05:08:19.504Z)
Latitude
0.00009°
Longitude
-89.3735°
Altitude
1,253.488 km
Speed
7.238 km/s
True Right ascension
01h 14m 23s
True Declination
0° 00' 00"
Sunlit
Object was in full shadow at epoch
Visualization orbit readout
Latitude
Unknown
Longitude
Unknown
Altitude
Unknown
Speed
Unknown
Apparent Right ascension
Unknown
Apparent Declination
Unknown
Sunlit
N/A
Visualization observer readout
Local Sidereal Time
02:36:50
Azimuth
Unknown
Elevation
Unknown
Doppler factor
Unknown
Orbital elements
Apogee altitude
1,293.445 km
Perigee altitude
1,244.444 km
Semi-major axis
7,647.082 km
Eccentricity
0.0032
Inclination
90.2638°
RAAN
18.5987°
Arg. of periapsis
329.9083°
True anomaly
30.20402°
Mean anomaly
30.0197°
Eccentric anomaly
30.11179°
Mean motion
3.24563 °/min
Orbital period
110.92 mins
BSTAR
0.0022064
Loading maneuver chart data...
Computing Atmospheric mass density...
Loading historical data...
Loading historical data...
Loading historical data...
Loading historical data...
Loading historical data...
Loading historical data...
Loading historical data...

Documentation

Showing up to 5 results
|